contact:dominique.lefevre@mio.osupytheas.fr, maurice.libes@osupytheas.fr, didier.mallarino@osupytheas.fr
Project:EMSO http://www.emso-fr.org/EMSO-France
Depth: 2436.0 m
Title:EMSO Ligure Ouest : Data MII capteur MICROCAT
DateTime_Computer,Latitude,Longitude,Temperature,Conductivity,Pressure,DateTime_Instrument
DateTime_Computer,Latitude,Longitude,degC,S m-1,dbar,DateTime_Instrument
2019-08-10T00:00:13Z,42.805,6.029,13.2971,4.59991,2469.914,2019-8-10T02:00:33Z
2019-08-10T00:03:16Z,42.805,6.029,13.2965,4.59970,2469.9,2019-8-10T02:03:37Z
2019-08-10T00:06:20Z,42.805,6.029,13.2971,4.59993,2469.9,2019-8-10T02:06:40Z
2019-08-10T00:09:23Z,42.805,6.029,13.2983,4.59994,2469.914,2019-8-10T02:09:43Z
2019-08-10T00:12:26Z,42.805,6.029,13.2978,4.59986,2469.914,2019-8-10T02:12:46Z
2019-08-10T00:15:30Z,42.805,6.029,13.2967,4.59973,2469.9,2019-8-10T02:15:50Z
2019-08-10T00:18:33Z,42.805,6.029,13.2974,4.59973,2469.9,2019-8-10T02:18:53Z
2019-08-10T00:21:36Z,42.805,6.029,13.2966,4.59975,2469.9,2019-8-10T02:21:56Z
2019-08-10T00:24:39Z,42.805,6.029,13.2968,4.59977,2469.876,2019-8-10T02:25:00Z
2019-08-10T00:27:43Z,42.805,6.029,13.2971,4.59979,2469.9,2019-8-10T02:28:03Z
2019-08-10T00:30:46Z,42.805,6.029,13.2977,4.59978,2469.867,2019-8-10T02:31:07Z
2019-08-10T00:33:50Z,42.805,6.029,13.2983,4.59991,2469.923,2019-8-10T02:34:10Z
2019-08-10T00:36:53Z,42.805,6.029,13.2971,4.59995,2469.876,2019-8-10T02:37:13Z
2019-08-10T00:39:56Z,42.805,6.029,13.2963,4.59973,2469.9,2019-8-10T02:40:16Z
2019-08-10T00:42:59Z,42.805,6.029,13.2986,4.59989,2469.914,2019-8-10T02:43:20Z
2019-08-10T00:46:03Z,42.805,6.029,13.2973,4.59988,2469.914,2019-8-10T02:46:23Z
2019-08-10T00:49:06Z,42.805,6.029,13.2974,4.60001,2469.9,2019-8-10T02:49:26Z
2019-08-10T00:52:09Z,42.805,6.029,13.2972,4.59988,2469.914,2019-8-10T02:52:30Z
2019-08-10T00:55:13Z,42.805,6.029,13.2965,4.59982,2469.914,2019-8-10T02:55:33Z
2019-08-10T00:58:16Z,42.805,6.029,13.2961,4.59982,2469.937,2019-8-10T02:58:36Z
2019-08-10T01:01:19Z,42.805,6.029,13.2974,4.59986,2469.914,2019-8-10T03:01:40Z
2019-08-10T01:04:23Z,42.805,6.029,13.2975,4.59991,2469.923,2019-8-10T03:04:43Z
2019-08-10T01:07:26Z,42.805,6.029,13.2974,4.60001,2469.9,2019-8-10T03:07:46Z
2019-08-10T01:10:29Z,42.805,6.029,13.2980,4.59999,2469.937,2019-8-10T03:10:49Z
2019-08-10T01:13:32Z,42.805,6.029,13.2968,4.59986,2469.914,2019-8-10T03:13:53Z
2019-08-10T01:16:36Z,42.805,6.029,13.2976,4.59976,2469.937,2019-8-10T03:16:56Z
2019-08-10T01:19:39Z,42.805,6.029,13.2969,4.59973,2469.947,2019-8-10T03:19:59Z
2019-08-10T01:22:42Z,42.805,6.029,13.2972,4.59975,2469.937,2019-8-10T03:23:03Z
2019-08-10T01:25:46Z,42.805,6.029,13.2974,4.59986,2469.96,2019-8-10T03:26:06Z
2019-08-10T01:28:49Z,42.805,6.029,13.2988,4.60003,2469.923,2019-8-10T03:29:09Z
2019-08-10T01:31:52Z,42.805,6.029,13.2975,4.59999,2469.96,2019-8-10T03:32:13Z
2019-08-10T01:34:56Z,42.805,6.029,13.2981,4.60003,2469.947,2019-8-10T03:35:16Z
2019-08-10T01:37:59Z,42.805,6.029,13.2981,4.60006,2469.9,2019-8-10T03:38:19Z
2019-08-10T01:41:02Z,42.805,6.029,13.2970,4.59995,2469.923,2019-8-10T03:41:22Z
2019-08-10T01:44:05Z,42.805,6.029,13.2983,4.59996,2469.923,2019-8-10T03:44:26Z
2019-08-10T01:47:09Z,42.805,6.029,13.2978,4.60001,2469.937,2019-8-10T03:47:29Z
2019-08-10T01:50:12Z,42.805,6.029,13.2989,4.59999,2469.923,2019-8-10T03:50:32Z
2019-08-10T01:53:15Z,42.805,6.029,13.2985,4.60003,2469.9,2019-8-10T03:53:36Z
2019-08-10T01:56:19Z,42.805,6.029,13.2971,4.59993,2469.923,2019-8-10T03:56:39Z
2019-08-10T01:59:22Z,42.805,6.029,13.2982,4.60010,2469.96,2019-8-10T03:59:42Z
2019-08-10T02:02:25Z,42.805,6.029,13.2982,4.60006,2469.923,2019-8-10T04:02:45Z
2019-08-10T02:05:28Z,42.805,6.029,13.2985,4.60006,2469.947,2019-8-10T04:05:49Z
2019-08-10T02:08:32Z,42.805,6.029,13.2985,4.60003,2469.937,2019-8-10T04:08:52Z
2019-08-10T02:11:35Z,42.805,6.029,13.2967,4.59998,2469.914,2019-8-10T04:11:55Z
2019-08-10T02:14:38Z,42.805,6.029,13.2972,4.60006,2469.923,2019-8-10T04:14:59Z
2019-08-10T02:17:42Z,42.805,6.029,13.2976,4.60004,2469.947,2019-8-10T04:18:02Z
2019-08-10T02:20:45Z,42.805,6.029,13.2980,4.60012,2469.923,2019-8-10T04:21:05Z
2019-08-10T02:23:48Z,42.805,6.029,13.2987,4.59999,2469.937,2019-8-10T04:24:08Z
2019-08-10T02:26:51Z,42.805,6.029,13.2967,4.59980,2469.914,2019-8-10T04:27:12Z
2019-08-10T02:29:55Z,42.805,6.029,13.2978,4.59988,2469.923,2019-8-10T04:30:15Z
2019-08-10T02:32:58Z,42.805,6.029,13.2993,4.60006,2469.923,2019-8-10T04:33:18Z
2019-08-10T02:36:01Z,42.805,6.029,13.2970,4.59985,2469.9,2019-8-10T04:36:22Z
2019-08-10T02:39:05Z,42.805,6.029,13.3000,4.60027,2469.937,2019-8-10T04:39:25Z
2019-08-10T02:42:08Z,42.805,6.029,13.2980,4.60031,2469.937,2019-8-10T04:42:28Z
2019-08-10T02:45:11Z,42.805,6.029,13.2993,4.60011,2469.923,2019-8-10T04:45:31Z
2019-08-10T02:48:14Z,42.805,6.029,13.2994,4.60009,2469.914,2019-8-10T04:48:35Z
2019-08-10T02:51:18Z,42.805,6.029,13.2992,4.60024,2469.9,2019-8-10T04:51:38Z
2019-08-10T02:54:21Z,42.805,6.029,13.2986,4.60013,2469.923,2019-8-10T04:54:41Z
2019-08-10T02:57:24Z,42.805,6.029,13.2982,4.60015,2469.96,2019-8-10T04:57:44Z
2019-08-10T03:00:27Z,42.805,6.029,13.2989,4.60014,2469.937,2019-8-10T05:00:48Z
2019-08-10T03:03:31Z,42.805,6.029,13.2975,4.59994,2469.923,2019-8-10T05:03:51Z
2019-08-10T03:06:34Z,42.805,6.029,13.2998,4.60020,2469.914,2019-8-10T05:06:54Z
2019-08-10T03:09:37Z,42.805,6.029,13.2981,4.60011,2469.9,2019-8-10T05:09:58Z
2019-08-10T03:12:41Z,42.805,6.029,13.2993,4.60007,2469.914,2019-8-10T05:13:01Z
2019-08-10T03:15:44Z,42.805,6.029,13.2995,4.60019,2469.923,2019-8-10T05:16:04Z
2019-08-10T03:18:47Z,42.805,6.029,13.2996,4.60029,2469.937,2019-8-10T05:19:07Z
2019-08-10T03:21:50Z,42.805,6.029,13.2977,4.60009,2469.96,2019-8-10T05:22:11Z
2019-08-10T03:24:54Z,42.805,6.029,13.2983,4.60024,2469.947,2019-8-10T05:25:14Z
2019-08-10T03:27:57Z,42.805,6.029,13.2979,4.60026,2469.923,2019-8-10T05:28:17Z
2019-08-10T03:31:00Z,42.805,6.029,13.3002,4.60033,2469.9,2019-8-10T05:31:21Z
2019-08-10T03:34:04Z,42.805,6.029,13.2987,4.60008,2469.937,2019-8-10T05:34:24Z
2019-08-10T03:37:07Z,42.805,6.029,13.3008,4.60022,2469.937,2019-8-10T05:37:27Z
2019-08-10T03:40:10Z,42.805,6.029,13.2980,4.60016,2469.914,2019-8-10T05:40:30Z
2019-08-10T03:43:13Z,42.805,6.029,13.2997,4.60035,2469.914,2019-8-10T05:43:34Z
2019-08-10T03:46:17Z,42.805,6.029,13.2991,4.60049,2469.914,2019-8-10T05:46:37Z
2019-08-10T03:49:20Z,42.805,6.029,13.2988,4.60021,2469.923,2019-8-10T05:49:40Z
2019-08-10T03:52:23Z,42.805,6.029,13.2987,4.60021,2469.937,2019-8-10T05:52:44Z
2019-08-10T03:55:27Z,42.805,6.029,13.2982,4.60019,2469.937,2019-8-10T05:55:47Z
2019-08-10T03:58:30Z,42.805,6.029,13.2998,4.60026,2469.914,2019-8-10T05:58:50Z
2019-08-10T04:01:33Z,42.805,6.029,13.2998,4.60027,2469.937,2019-8-10T06:01:53Z
2019-08-10T04:04:36Z,42.805,6.029,13.2983,4.60008,2469.9,2019-8-10T06:04:57Z
2019-08-10T04:07:40Z,42.805,6.029,13.2968,4.59993,2469.9,2019-8-10T06:08:00Z
2019-08-10T04:10:43Z,42.805,6.029,13.2991,4.60006,2469.9,2019-8-10T06:11:03Z
2019-08-10T04:13:46Z,42.805,6.029,13.2971,4.59989,2469.937,2019-8-10T06:14:07Z
2019-08-10T04:16:50Z,42.805,6.029,13.2974,4.59991,2469.9,2019-8-10T06:17:10Z
2019-08-10T04:19:53Z,42.805,6.029,13.2976,4.60011,2469.923,2019-8-10T06:20:13Z
2019-08-10T04:22:56Z,42.805,6.029,13.2978,4.60028,2469.914,2019-8-10T06:23:16Z
2019-08-10T04:25:59Z,42.805,6.029,13.2983,4.60038,2469.937,2019-8-10T06:26:20Z
2019-08-10T04:29:03Z,42.805,6.029,13.2993,4.60033,2469.914,2019-8-10T06:29:23Z
2019-08-10T04:32:06Z,42.805,6.029,13.3003,4.60006,2469.9,2019-8-10T06:32:26Z
2019-08-10T04:35:09Z,42.805,6.029,13.2998,4.60014,2469.937,2019-8-10T06:35:30Z
2019-08-10T04:38:13Z,42.805,6.029,13.2986,4.60029,2469.937,2019-8-10T06:38:33Z
2019-08-10T04:41:16Z,42.805,6.029,13.2983,4.60012,2469.947,2019-8-10T06:41:36Z
2019-08-10T04:44:19Z,42.805,6.029,13.2989,4.60013,2469.923,2019-8-10T06:44:39Z
2019-08-10T04:47:22Z,42.805,6.029,13.2976,4.60016,2469.96,2019-8-10T06:47:43Z
2019-08-10T04:50:26Z,42.805,6.029,13.2974,4.60001,2469.923,2019-8-10T06:50:46Z
2019-08-10T04:53:29Z,42.805,6.029,13.2986,4.60026,2469.947,2019-8-10T06:53:49Z
2019-08-10T04:56:33Z,42.805,6.029,13.2991,4.59983,2469.923,2019-8-10T06:56:53Z
2019-08-10T04:59:36Z,42.805,6.029,13.2983,4.60036,2469.923,2019-8-10T06:59:56Z
2019-08-10T05:02:39Z,42.805,6.029,13.2991,4.60023,2469.9,2019-8-10T07:03:00Z
2019-08-10T05:05:43Z,42.805,6.029,13.2976,4.60006,2469.937,2019-8-10T07:06:03Z
2019-08-10T05:08:46Z,42.805,6.029,13.2969,4.60003,2469.914,2019-8-10T07:09:06Z
2019-08-10T05:11:49Z,42.805,6.029,13.2964,4.60028,2469.937,2019-8-10T07:12:09Z
2019-08-10T05:14:52Z,42.805,6.029,13.2979,4.59996,2469.914,2019-8-10T07:15:13Z
2019-08-10T05:17:56Z,42.805,6.029,13.2969,4.60002,2469.853,2019-8-10T07:18:16Z
2019-08-10T05:20:59Z,42.805,6.029,13.2964,4.60006,2469.9,2019-8-10T07:21:19Z
2019-08-10T05:24:02Z,42.805,6.029,13.2966,4.59986,2469.89,2019-8-10T07:24:23Z
2019-08-10T05:27:06Z,42.805,6.029,13.2972,4.60019,2469.9,2019-8-10T07:27:26Z
2019-08-10T05:30:09Z,42.805,6.029,13.2983,4.60011,2469.89,2019-8-10T07:30:29Z
2019-08-10T05:33:12Z,42.805,6.029,13.2990,4.60021,2469.89,2019-8-10T07:33:32Z
2019-08-10T05:36:15Z,42.805,6.029,13.2989,4.60031,2469.937,2019-8-10T07:36:36Z
2019-08-10T05:39:18Z,42.805,6.029,13.2983,4.60028,2469.9,2019-8-10T07:39:39Z
2019-08-10T05:42:22Z,42.805,6.029,13.2976,4.59998,2469.937,2019-8-10T07:42:42Z
2019-08-10T05:45:25Z,42.805,6.029,13.2968,4.60019,2469.914,2019-8-10T07:45:45Z
2019-08-10T05:48:28Z,42.805,6.029,13.2989,4.60030,2469.876,2019-8-10T07:48:48Z
2019-08-10T05:51:31Z,42.805,6.029,13.2987,4.60004,2469.9,2019-8-10T07:51:52Z
2019-08-10T05:54:34Z,42.805,6.029,13.2974,4.59988,2469.914,2019-8-10T07:54:55Z
2019-08-10T05:57:38Z,42.805,6.029,13.2972,4.59984,2469.914,2019-8-10T07:57:58Z
2019-08-10T06:00:41Z,42.805,6.029,13.2981,4.59997,2469.876,2019-8-10T08:01:01Z
2019-08-10T06:03:44Z,42.805,6.029,13.2979,4.60011,2469.914,2019-8-10T08:04:05Z
2019-08-10T06:06:47Z,42.805,6.029,13.2973,4.59994,2469.89,2019-8-10T08:07:08Z
2019-08-10T06:09:51Z,42.805,6.029,13.2983,4.60001,2469.876,2019-8-10T08:10:11Z
2019-08-10T06:12:54Z,42.805,6.029,13.2977,4.60003,2469.876,2019-8-10T08:13:14Z
2019-08-10T06:15:57Z,42.805,6.029,13.2974,4.59991,2469.89,2019-8-10T08:16:17Z
2019-08-10T06:19:00Z,42.805,6.029,13.2971,4.59991,2469.876,2019-8-10T08:19:20Z
2019-08-10T06:22:03Z,42.805,6.029,13.2971,4.59990,2469.876,2019-8-10T08:22:24Z
2019-08-10T06:25:07Z,42.805,6.029,13.2964,4.59983,2469.876,2019-8-10T08:25:27Z
2019-08-10T06:28:10Z,42.805,6.029,13.2973,4.59986,2469.9,2019-8-10T08:28:30Z
2019-08-10T06:31:13Z,42.805,6.029,13.2982,4.59999,2469.876,2019-8-10T08:31:33Z
2019-08-10T06:34:16Z,42.805,6.029,13.2966,4.59984,2469.867,2019-8-10T08:34:36Z
2019-08-10T06:37:19Z,42.805,6.029,13.2983,4.60019,2469.89,2019-8-10T08:37:40Z
2019-08-10T06:40:22Z,42.805,6.029,13.2979,4.60003,2469.89,2019-8-10T08:40:43Z
2019-08-10T06:43:26Z,42.805,6.029,13.2972,4.59989,2469.867,2019-8-10T08:43:46Z
2019-08-10T06:46:29Z,42.805,6.029,13.2967,4.60006,2469.853,2019-8-10T08:46:49Z
2019-08-10T06:49:32Z,42.805,6.029,13.2968,4.59989,2469.867,2019-8-10T08:49:52Z
2019-08-10T06:52:35Z,42.805,6.029,13.2968,4.59988,2469.876,2019-8-10T08:52:56Z
2019-08-10T06:55:39Z,42.805,6.029,13.2973,4.60015,2469.876,2019-8-10T08:55:59Z
2019-08-10T06:58:42Z,42.805,6.029,13.2967,4.59991,2469.867,2019-8-10T08:59:02Z
2019-08-10T07:01:45Z,42.805,6.029,13.2968,4.60005,2469.853,2019-8-10T09:02:05Z
2019-08-10T07:04:48Z,42.805,6.029,13.2970,4.60003,2469.923,2019-8-10T09:05:09Z
2019-08-10T07:07:51Z,42.805,6.029,13.2967,4.59981,2469.876,2019-8-10T09:08:12Z
2019-08-10T07:10:55Z,42.805,6.029,13.2973,4.59990,2469.853,2019-8-10T09:11:15Z
2019-08-10T07:13:58Z,42.805,6.029,13.2970,4.59993,2469.89,2019-8-10T09:14:18Z
2019-08-10T07:17:01Z,42.805,6.029,13.2974,4.59998,2469.89,2019-8-10T09:17:21Z
2019-08-10T07:20:04Z,42.805,6.029,13.2968,4.59992,2469.867,2019-8-10T09:20:24Z
2019-08-10T07:23:07Z,42.805,6.029,13.2971,4.60011,2469.867,2019-8-10T09:23:28Z
2019-08-10T07:26:11Z,42.805,6.029,13.2970,4.59988,2469.867,2019-8-10T09:26:31Z
2019-08-10T07:29:14Z,42.805,6.029,13.2986,4.60026,2469.867,2019-8-10T09:29:34Z
2019-08-10T07:32:17Z,42.805,6.029,13.2974,4.59986,2469.853,2019-8-10T09:32:37Z
2019-08-10T07:35:20Z,42.805,6.029,13.2978,4.60001,2469.853,2019-8-10T09:35:41Z
2019-08-10T07:38:23Z,42.805,6.029,13.2980,4.60002,2469.89,2019-8-10T09:38:44Z
2019-08-10T07:41:27Z,42.805,6.029,13.2981,4.60011,2469.83,2019-8-10T09:41:47Z
2019-08-10T07:44:30Z,42.805,6.029,13.2982,4.60024,2469.83,2019-8-10T09:44:50Z
2019-08-10T07:47:33Z,42.805,6.029,13.2986,4.60017,2469.853,2019-8-10T09:47:53Z
2019-08-10T07:50:36Z,42.805,6.029,13.2976,4.60020,2469.839,2019-8-10T09:50:56Z
2019-08-10T07:53:39Z,42.805,6.029,13.2979,4.60022,2469.89,2019-8-10T09:54:00Z
2019-08-10T07:56:43Z,42.805,6.029,13.2983,4.60020,2469.83,2019-8-10T09:57:03Z
2019-08-10T07:59:46Z,42.805,6.029,13.2972,4.59998,2469.867,2019-8-10T10:00:06Z
2019-08-10T08:02:49Z,42.805,6.029,13.2991,4.60008,2469.844,2019-8-10T10:03:09Z
2019-08-10T08:05:52Z,42.805,6.029,13.2980,4.60011,2469.83,2019-8-10T10:06:13Z
2019-08-10T08:08:55Z,42.805,6.029,13.2967,4.60011,2469.83,2019-8-10T10:09:16Z
2019-08-10T08:11:59Z,42.805,6.029,13.2973,4.60008,2469.853,2019-8-10T10:12:19Z
2019-08-10T08:15:02Z,42.805,6.029,13.2976,4.60026,2469.853,2019-8-10T10:15:22Z
2019-08-10T08:18:05Z,42.805,6.029,13.2986,4.60003,2469.853,2019-8-10T10:18:25Z
2019-08-10T08:21:08Z,42.805,6.029,13.2982,4.60006,2469.83,2019-8-10T10:21:29Z
2019-08-10T08:24:11Z,42.805,6.029,13.2983,4.60009,2469.853,2019-8-10T10:24:32Z
2019-08-10T08:27:15Z,42.805,6.029,13.2968,4.60011,2469.867,2019-8-10T10:27:35Z
2019-08-10T08:30:18Z,42.805,6.029,13.2973,4.59980,2469.853,2019-8-10T10:30:38Z
2019-08-10T08:33:21Z,42.805,6.029,13.2971,4.59983,2469.83,2019-8-10T10:33:41Z
2019-08-10T08:36:24Z,42.805,6.029,13.2969,4.59992,2469.853,2019-8-10T10:36:45Z
2019-08-10T08:39:28Z,42.805,6.029,13.2972,4.59990,2469.83,2019-8-10T10:39:48Z
2019-08-10T08:42:31Z,42.805,6.029,13.2982,4.60029,2469.83,2019-8-10T10:42:51Z
2019-08-10T08:45:34Z,42.805,6.029,13.2976,4.60006,2469.821,2019-8-10T10:45:54Z
2019-08-10T08:48:37Z,42.805,6.029,13.2984,4.59993,2469.853,2019-8-10T10:48:57Z
2019-08-10T08:51:40Z,42.805,6.029,13.2982,4.60003,2469.83,2019-8-10T10:52:01Z
2019-08-10T08:54:44Z,42.805,6.029,13.2970,4.59981,2469.844,2019-8-10T10:55:04Z
2019-08-10T08:57:47Z,42.805,6.029,13.2969,4.59987,2469.867,2019-8-10T10:58:07Z
2019-08-10T09:00:50Z,42.805,6.029,13.2975,4.59981,2469.853,2019-8-10T11:01:10Z
2019-08-10T09:03:53Z,42.805,6.029,13.2967,4.59995,2469.853,2019-8-10T11:04:14Z
2019-08-10T09:06:57Z,42.805,6.029,13.2985,4.60019,2469.806,2019-8-10T11:07:17Z
2019-08-10T09:10:00Z,42.805,6.029,13.2974,4.59988,2469.797,2019-8-10T11:10:20Z
2019-08-10T09:13:03Z,42.805,6.029,13.2969,4.59991,2469.83,2019-8-10T11:13:23Z
2019-08-10T09:16:06Z,42.805,6.029,13.2977,4.59984,2469.844,2019-8-10T11:16:27Z
2019-08-10T09:19:09Z,42.805,6.029,13.2979,4.60005,2469.806,2019-8-10T11:19:30Z
2019-08-10T09:22:13Z,42.805,6.029,13.2988,4.60016,2469.844,2019-8-10T11:22:33Z
2019-08-10T09:25:16Z,42.805,6.029,13.2967,4.59985,2469.83,2019-8-10T11:25:36Z
2019-08-10T09:28:19Z,42.805,6.029,13.2973,4.60001,2469.853,2019-8-10T11:28:39Z
2019-08-10T09:31:22Z,42.805,6.029,13.2974,4.59998,2469.821,2019-8-10T11:31:43Z
2019-08-10T09:34:25Z,42.805,6.029,13.2964,4.59983,2469.821,2019-8-10T11:34:46Z
2019-08-10T09:37:29Z,42.805,6.029,13.2968,4.59980,2469.821,2019-8-10T11:37:49Z
2019-08-10T09:40:32Z,42.805,6.029,13.2971,4.59981,2469.844,2019-8-10T11:40:52Z
2019-08-10T09:43:35Z,42.805,6.029,13.2970,4.59982,2469.83,2019-8-10T11:43:55Z
2019-08-10T09:46:38Z,42.805,6.029,13.2970,4.59980,2469.83,2019-8-10T11:46:59Z
2019-08-10T09:49:41Z,42.805,6.029,13.2971,4.59976,2469.83,2019-8-10T11:50:02Z
2019-08-10T09:52:45Z,42.805,6.029,13.2971,4.59977,2469.83,2019-8-10T11:53:05Z
2019-08-10T09:55:48Z,42.805,6.029,13.2963,4.59985,2469.821,2019-8-10T11:56:08Z
2019-08-10T09:58:51Z,42.805,6.029,13.2970,4.59982,2469.806,2019-8-10T11:59:11Z
2019-08-10T10:01:54Z,42.805,6.029,13.2965,4.59991,2469.83,2019-8-10T12:02:15Z
2019-08-10T10:04:58Z,42.805,6.029,13.2973,4.59988,2469.783,2019-8-10T12:05:18Z
2019-08-10T10:08:01Z,42.805,6.029,13.2973,4.59995,2469.83,2019-8-10T12:08:21Z
2019-08-10T10:11:04Z,42.805,6.029,13.2976,4.59992,2469.83,2019-8-10T12:11:24Z
2019-08-10T10:14:07Z,42.805,6.029,13.2967,4.59981,2469.844,2019-8-10T12:14:28Z
2019-08-10T10:17:11Z,42.805,6.029,13.2970,4.59978,2469.844,2019-8-10T12:17:31Z
2019-08-10T10:20:14Z,42.805,6.029,13.2968,4.59991,2469.806,2019-8-10T12:20:34Z
2019-08-10T10:23:17Z,42.805,6.029,13.2967,4.59982,2469.853,2019-8-10T12:23:37Z
2019-08-10T10:26:20Z,42.805,6.029,13.2971,4.59991,2469.844,2019-8-10T12:26:41Z
2019-08-10T10:29:24Z,42.805,6.029,13.2972,4.59999,2469.797,2019-8-10T12:29:44Z
2019-08-10T10:32:27Z,42.805,6.029,13.2966,4.59981,2469.844,2019-8-10T12:32:47Z
2019-08-10T10:35:30Z,42.805,6.029,13.2974,4.59978,2469.806,2019-8-10T12:35:51Z
2019-08-10T10:38:33Z,42.805,6.029,13.2969,4.59973,2469.844,2019-8-10T12:38:54Z
2019-08-10T10:41:37Z,42.805,6.029,13.2975,4.59981,2469.806,2019-8-10T12:41:57Z
2019-08-10T10:44:40Z,42.805,6.029,13.2967,4.59977,2469.853,2019-8-10T12:45:00Z
2019-08-10T10:47:43Z,42.805,6.029,13.2966,4.59980,2469.844,2019-8-10T12:48:03Z
2019-08-10T10:50:46Z,42.805,6.029,13.2970,4.59977,2469.844,2019-8-10T12:51:07Z
2019-08-10T10:53:50Z,42.805,6.029,13.2967,4.59976,2469.844,2019-8-10T12:54:10Z
2019-08-10T10:56:53Z,42.805,6.029,13.2973,4.59982,2469.821,2019-8-10T12:57:13Z
2019-08-10T10:59:56Z,42.805,6.029,13.2972,4.59976,2469.844,2019-8-10T13:00:16Z
2019-08-10T11:02:59Z,42.805,6.029,13.2969,4.59972,2469.806,2019-8-10T13:03:19Z
2019-08-10T11:06:02Z,42.805,6.029,13.2965,4.59978,2469.844,2019-8-10T13:06:23Z
2019-08-10T11:09:06Z,42.805,6.029,13.2969,4.59978,2469.853,2019-8-10T13:09:26Z
2019-08-10T11:12:09Z,42.805,6.029,13.2971,4.59978,2469.83,2019-8-10T13:12:29Z
2019-08-10T11:15:12Z,42.805,6.029,13.2972,4.59994,2469.83,2019-8-10T13:15:32Z
2019-08-10T11:18:15Z,42.805,6.029,13.2967,4.59979,2469.853,2019-8-10T13:18:36Z
2019-08-10T11:21:19Z,42.805,6.029,13.2970,4.59977,2469.821,2019-8-10T13:21:39Z
2019-08-10T11:24:22Z,42.805,6.029,13.2965,4.59979,2469.806,2019-8-10T13:24:42Z
2019-08-10T11:27:25Z,42.805,6.029,13.2973,4.59978,2469.844,2019-8-10T13:27:45Z
2019-08-10T11:30:28Z,42.805,6.029,13.2973,4.59989,2469.83,2019-8-10T13:30:48Z
2019-08-10T11:33:31Z,42.805,6.029,13.2974,4.59989,2469.83,2019-8-10T13:33:52Z
2019-08-10T11:36:35Z,42.805,6.029,13.2971,4.59981,2469.844,2019-8-10T13:36:55Z
2019-08-10T11:39:38Z,42.805,6.029,13.2973,4.59992,2469.867,2019-8-10T13:39:58Z
2019-08-10T11:42:41Z,42.805,6.029,13.2967,4.59973,2469.853,2019-8-10T13:43:01Z
2019-08-10T11:45:44Z,42.805,6.029,13.2969,4.59995,2469.806,2019-8-10T13:46:05Z
2019-08-10T11:48:48Z,42.805,6.029,13.2966,4.59974,2469.876,2019-8-10T13:49:08Z
2019-08-10T11:51:51Z,42.805,6.029,13.2969,4.59976,2469.83,2019-8-10T13:52:12Z
2019-08-10T11:54:54Z,42.805,6.029,13.2958,4.59985,2469.853,2019-8-10T13:55:15Z
2019-08-10T11:57:58Z,42.805,6.029,13.2968,4.59978,2469.867,2019-8-10T13:58:18Z
2019-08-10T12:01:01Z,42.805,6.029,13.2967,4.59977,2469.876,2019-8-10T14:01:21Z
2019-08-10T12:04:04Z,42.805,6.029,13.2965,4.59980,2469.83,2019-8-10T14:04:24Z
2019-08-10T12:07:07Z,42.805,6.029,13.2967,4.59976,2469.853,2019-8-10T14:07:28Z
2019-08-10T12:10:11Z,42.805,6.029,13.2967,4.59970,2469.844,2019-8-10T14:10:31Z
2019-08-10T12:13:14Z,42.805,6.029,13.2970,4.59976,2469.867,2019-8-10T14:13:34Z
2019-08-10T12:16:17Z,42.805,6.029,13.2968,4.59971,2469.853,2019-8-10T14:16:37Z
2019-08-10T12:19:20Z,42.805,6.029,13.2973,4.59975,2469.853,2019-8-10T14:19:41Z
2019-08-10T12:22:23Z,42.805,6.029,13.2971,4.59987,2469.876,2019-8-10T14:22:44Z
2019-08-10T12:25:27Z,42.805,6.029,13.2967,4.59972,2469.853,2019-8-10T14:25:47Z
2019-08-10T12:28:30Z,42.805,6.029,13.2970,4.59979,2469.867,2019-8-10T14:28:50Z
2019-08-10T12:31:33Z,42.805,6.029,13.2969,4.59989,2469.853,2019-8-10T14:31:53Z
2019-08-10T12:34:36Z,42.805,6.029,13.2968,4.59991,2469.853,2019-8-10T14:34:57Z
2019-08-10T12:37:40Z,42.805,6.029,13.2968,4.59974,2469.89,2019-8-10T14:38:00Z
2019-08-10T12:40:43Z,42.805,6.029,13.2967,4.59975,2469.867,2019-8-10T14:41:03Z
2019-08-10T12:43:46Z,42.805,6.029,13.2966,4.59979,2469.853,2019-8-10T14:44:06Z
2019-08-10T12:46:49Z,42.805,6.029,13.2969,4.59978,2469.89,2019-8-10T14:47:10Z
2019-08-10T12:49:53Z,42.805,6.029,13.2971,4.59977,2469.876,2019-8-10T14:50:13Z
2019-08-10T12:52:56Z,42.805,6.029,13.2968,4.59978,2469.89,2019-8-10T14:53:16Z
2019-08-10T12:55:59Z,42.805,6.029,13.2968,4.59976,2469.89,2019-8-10T14:56:19Z
2019-08-10T12:59:02Z,42.805,6.029,13.2966,4.59977,2469.9,2019-8-10T14:59:23Z
2019-08-10T13:02:05Z,42.805,6.029,13.2968,4.59972,2469.867,2019-8-10T15:02:26Z
2019-08-10T13:05:09Z,42.805,6.029,13.2967,4.59972,2469.9,2019-8-10T15:05:29Z
2019-08-10T13:08:12Z,42.805,6.029,13.2966,4.59967,2469.876,2019-8-10T15:08:32Z
2019-08-10T13:11:15Z,42.805,6.029,13.2970,4.59969,2469.89,2019-8-10T15:11:35Z
2019-08-10T13:14:18Z,42.805,6.029,13.2969,4.59976,2469.9,2019-8-10T15:14:39Z
2019-08-10T13:17:22Z,42.805,6.029,13.2966,4.59969,2469.853,2019-8-10T15:17:42Z
2019-08-10T13:20:25Z,42.805,6.029,13.2968,4.59981,2469.89,2019-8-10T15:20:45Z
2019-08-10T13:23:28Z,42.805,6.029,13.2967,4.59978,2469.89,2019-8-10T15:23:48Z
2019-08-10T13:26:31Z,42.805,6.029,13.2971,4.59982,2469.876,2019-8-10T15:26:52Z
2019-08-10T13:29:35Z,42.805,6.029,13.2981,4.59995,2469.9,2019-8-10T15:29:55Z
2019-08-10T13:32:38Z,42.805,6.029,13.2963,4.59979,2469.9,2019-8-10T15:32:58Z
2019-08-10T13:35:41Z,42.805,6.029,13.2967,4.59973,2469.9,2019-8-10T15:36:01Z
2019-08-10T13:38:44Z,42.805,6.029,13.2968,4.59978,2469.914,2019-8-10T15:39:05Z
2019-08-10T13:41:48Z,42.805,6.029,13.2966,4.59971,2469.914,2019-8-10T15:42:08Z
2019-08-10T13:44:51Z,42.805,6.029,13.2967,4.59979,2469.914,2019-8-10T15:45:11Z
2019-08-10T13:47:54Z,42.805,6.029,13.2965,4.59973,2469.89,2019-8-10T15:48:14Z
2019-08-10T13:50:57Z,42.805,6.029,13.2967,4.59976,2469.914,2019-8-10T15:51:18Z
2019-08-10T13:54:01Z,42.805,6.029,13.2966,4.59975,2469.937,2019-8-10T15:54:21Z
2019-08-10T13:57:04Z,42.805,6.029,13.2975,4.59976,2469.9,2019-8-10T15:57:24Z
2019-08-10T14:00:07Z,42.805,6.029,13.2973,4.59990,2469.9,2019-8-10T16:00:27Z
2019-08-10T14:03:10Z,42.805,6.029,13.2966,4.59978,2469.923,2019-8-10T16:03:31Z
2019-08-10T14:06:14Z,42.805,6.029,13.2968,4.59973,2469.923,2019-8-10T16:06:34Z
2019-08-10T14:09:17Z,42.805,6.029,13.2967,4.59973,2469.89,2019-8-10T16:09:37Z
2019-08-10T14:12:20Z,42.805,6.029,13.2968,4.59974,2469.9,2019-8-10T16:12:40Z
2019-08-10T14:15:23Z,42.805,6.029,13.2965,4.59971,2469.923,2019-8-10T16:15:44Z
2019-08-10T14:18:27Z,42.805,6.029,13.2970,4.59973,2469.923,2019-8-10T16:18:47Z
2019-08-10T14:21:30Z,42.805,6.029,13.2972,4.59982,2469.9,2019-8-10T16:21:50Z
2019-08-10T14:24:33Z,42.805,6.029,13.2968,4.59969,2469.923,2019-8-10T16:24:53Z
2019-08-10T14:27:36Z,42.805,6.029,13.2967,4.59967,2469.914,2019-8-10T16:27:57Z
2019-08-10T14:30:40Z,42.805,6.029,13.2967,4.59973,2469.923,2019-8-10T16:31:00Z
2019-08-10T14:33:43Z,42.805,6.029,13.2968,4.59972,2469.937,2019-8-10T16:34:03Z
2019-08-10T14:36:46Z,42.805,6.029,13.2965,4.59975,2469.947,2019-8-10T16:37:06Z
2019-08-10T14:39:49Z,42.805,6.029,13.2966,4.59985,2469.937,2019-8-10T16:40:10Z
2019-08-10T14:42:52Z,42.805,6.029,13.2964,4.59973,2469.984,2019-8-10T16:43:13Z
2019-08-10T14:45:56Z,42.805,6.029,13.2972,4.59979,2469.937,2019-8-10T16:46:16Z
2019-08-10T14:48:59Z,42.805,6.029,13.2971,4.59978,2469.97,2019-8-10T16:49:19Z
2019-08-10T14:52:02Z,42.805,6.029,13.2979,4.59981,2469.923,2019-8-10T16:52:23Z
2019-08-10T14:55:05Z,42.805,6.029,13.2968,4.59973,2469.937,2019-8-10T16:55:26Z
2019-08-10T14:58:09Z,42.805,6.029,13.2967,4.59972,2469.96,2019-8-10T16:58:29Z
2019-08-10T15:01:12Z,42.805,6.029,13.2968,4.59975,2469.923,2019-8-10T17:01:32Z
2019-08-10T15:04:15Z,42.805,6.029,13.2967,4.59977,2469.923,2019-8-10T17:04:35Z
2019-08-10T15:07:18Z,42.805,6.029,13.2965,4.59976,2469.96,2019-8-10T17:07:39Z
2019-08-10T15:10:22Z,42.805,6.029,13.2967,4.59977,2469.923,2019-8-10T17:10:42Z
2019-08-10T15:13:25Z,42.805,6.029,13.2968,4.59972,2469.97,2019-8-10T17:13:45Z